• In Russia
  • List of Countries
  • For 7 days
  • Water Temperature
  • Satellite Maps
  • Weather Map
  • Weather Widgets
  • user-avatar
    Login

    Hourly Weather Zylice

    Today, 19 August, Sunday

    Time Temperature Precipitation Wind Pressure Humidity
    00:00 +22°C° 0 mm 1 mps 757 mmHg 71%
    01:00 +22°C° 0 mm 1 mps 757 mmHg 77%
    02:00 +21°C° 0 mm 1 mps 757 mmHg 78%
    03:00 +21°C° 0 mm 1 mps 757 mmHg 79%
    04:00 +21°C° 0 mm 1 mps 757 mmHg 81%
    05:00 +22°C° 0 mm 1 mps 757 mmHg 77%
    06:00 +23°C° 0 mm 1 mps 757 mmHg 74%
    07:00 +24°C° 0 mm 1 mps 758 mmHg 69%
    08:00 +25°C° 0 mm 1 mps 758 mmHg 62%
    09:00 +27°C° 0 mm 1 mps 757 mmHg 55%
    10:00 +28°C° 0 mm 2 mps 757 mmHg 48%
    11:00 +29°C° 0 mm 2 mps 757 mmHg 44%
    12:00 +30°C° 0 mm 1 mps 757 mmHg 40%
    13:00 +31°C° 0 mm 1 mps 757 mmHg 36%
    14:00 +31°C° 0 mm 1 mps 756 mmHg 36%
    15:00 +31°C° 0 mm 1 mps 756 mmHg 35%
    16:00 +31°C° 0 mm 1 mps 755 mmHg 35%
    17:00 +30°C° 0 mm 1 mps 755 mmHg 39%
    18:00 +29°C° 0 mm 1 mps 755 mmHg 43%
    19:00 +27°C° 0 mm 1 mps 755 mmHg 47%
    20:00 +26°C° 0 mm 1 mps 755 mmHg 50%
    21:00 +26°C° 0 mm 2 mps 755 mmHg 52%
    22:00 +25°C° 0 mm 2 mps 755 mmHg 55%
    23:00 +24°C° 0.1 mm 2 mps 754 mmHg 59%

    Tomorrow, 20 August, Monday

    Time Temperature Precipitation Wind Pressure Humidity
    00:00 +24°C° 0.1 mm 2 mps 754 mmHg 63%
    01:00 +23°C° 0.1 mm 2 mps 754 mmHg 68%
    02:00 +23°C° 0 mm 2 mps 754 mmHg 70%
    03:00 +23°C° 0 mm 2 mps 754 mmHg 73%
    04:00 +21°C° 0 mm 2 mps 754 mmHg 75%
    05:00 +22°C° 0 mm 3 mps 754 mmHg 71%
    06:00 +24°C° 0 mm 3 mps 754 mmHg 67%
    07:00 +23°C° 0 mm 4 mps 754 mmHg 63%
    08:00 +26°C° 0 mm 4 mps 754 mmHg 57%
    09:00 +27°C° 0 mm 4 mps 754 mmHg 51%
    10:00 +29°C° 0 mm 4 mps 754 mmHg 45%
    11:00 +29°C° 0 mm 4 mps 754 mmHg 44%
    12:00 +30°C° 0 mm 5 mps 754 mmHg 43%
    13:00 +30°C° 0 mm 5 mps 754 mmHg 42%
    14:00 +30°C° 0 mm 5 mps 754 mmHg 44%
    15:00 +29°C° 0 mm 5 mps 753 mmHg 46%
    16:00 +29°C° 0 mm 5 mps 753 mmHg 49%
    17:00 +27°C° 0 mm 5 mps 754 mmHg 53%
    18:00 +26°C° 0 mm 4 mps 754 mmHg 58%
    19:00 +25°C° 0 mm 3 mps 754 mmHg 62%
    20:00 +24°C° 0 mm 3 mps 754 mmHg 65%
    21:00 +22°C° 0 mm 3 mps 755 mmHg 69%
    22:00 +21°C° 0 mm 2 mps 755 mmHg 72%
    23:00 +21°C° 0 mm 2 mps 755 mmHg 74%

    Day after tomorrow, 21 August, Tuesday

    Time Temperature Precipitation Wind Pressure Humidity
    00:00 +20°C° 0 mm 2 mps 755 mmHg 77%
    01:00 +20°C° 0 mm 2 mps 755 mmHg 79%
    02:00 +20°C° 0 mm 2 mps 756 mmHg 79%
    03:00 +19°C° 0 mm 2 mps 756 mmHg 80%
    04:00 +19°C° 0 mm 2 mps 756 mmHg 80%
    05:00 +19°C° 0 mm 2 mps 756 mmHg 76%
    06:00 +19°C° 0 mm 2 mps 757 mmHg 72%
    07:00 +19°C° 0 mm 3 mps 757 mmHg 69%
    08:00 +20°C° 0 mm 3 mps 757 mmHg 63%
    09:00 +21°C° 0 mm 3 mps 757 mmHg 58%
    10:00 +22°C° 0 mm 3 mps 758 mmHg 53%
    11:00 +24°C° 0 mm 3 mps 757 mmHg 49%
    12:00 +25°C° 0 mm 3 mps 757 mmHg 44%
    13:00 +26°C° 0 mm 3 mps 757 mmHg 40%
    14:00 +26°C° 0 mm 3 mps 757 mmHg 38%
    15:00 +26°C° 0 mm 2 mps 757 mmHg 37%
    16:00 +27°C° 0 mm 2 mps 757 mmHg 35%
    17:00 +25°C° 0 mm 2 mps 757 mmHg 39%
    18:00 +23°C° 0 mm 2 mps 757 mmHg 43%
    19:00 +21°C° 0 mm 2 mps 757 mmHg 47%
    20:00 +20°C° 0 mm 2 mps 757 mmHg 48%
    21:00 +20°C° 0 mm 1 mps 758 mmHg 50%
    22:00 +19°C° 0 mm 1 mps 758 mmHg 52%
    23:00 +19°C° 0 mm 1 mps 758 mmHg 54%

    22 August, Wednesday

    Time Temperature Precipitation Wind Pressure Humidity
    00:00 +19°C° 0 mm 1 mps 758 mmHg 56%
    01:00 +18°C° 0 mm 1 mps 758 mmHg 58%
    02:00 +18°C° 0 mm 1 mps 758 mmHg 59%
    03:00 +16°C° 0 mm 1 mps 758 mmHg 60%
    04:00 +16°C° 0 mm 1 mps 758 mmHg 62%
    05:00 +18°C° 0 mm 1 mps 758 mmHg 60%
    06:00 +18°C° 0 mm 2 mps 758 mmHg 58%
    07:00 +19°C° 0 mm 2 mps 758 mmHg 57%
    08:00 +21°C° 0 mm 2 mps 758 mmHg 51%
    09:00 +24°C° 0 mm 2 mps 758 mmHg 46%
    10:00 +26°C° 0 mm 3 mps 758 mmHg 40%
    11:00 +27°C° 0 mm 3 mps 757 mmHg 38%
    12:00 +28°C° 0 mm 3 mps 757 mmHg 36%
    13:00 +29°C° 0 mm 3 mps 756 mmHg 35%
    14:00 +29°C° 0 mm 3 mps 756 mmHg 35%
    15:00 +29°C° 0 mm 2 mps 756 mmHg 35%
    16:00 +29°C° 0 mm 2 mps 756 mmHg 36%
    17:00 +28°C° 0 mm 2 mps 755 mmHg 40%
    18:00 +26°C° 0 mm 2 mps 755 mmHg 45%
    19:00 +24°C° 0 mm 2 mps 755 mmHg 49%
    20:00 +23°C° 0 mm 2 mps 755 mmHg 51%
    21:00 +23°C° 0 mm 2 mps 755 mmHg 52%
    22:00 +21°C° 0 mm 2 mps 755 mmHg 54%
    23:00 +21°C° 0 mm 2 mps 755 mmHg 55%

    23 August, Thursday

    Time Temperature Precipitation Wind Pressure Humidity
    00:00 +20°C° 0 mm 3 mps 755 mmHg 56%
    01:00 +20°C° 0 mm 3 mps 755 mmHg 58%
    02:00 +20°C° 0 mm 3 mps 755 mmHg 59%
    03:00 +20°C° 0 mm 3 mps 754 mmHg 61%
    04:00 +20°C° 0 mm 3 mps 754 mmHg 63%
    05:00 +20°C° 0 mm 3 mps 754 mmHg 63%
    06:00 +21°C° 0 mm 3 mps 754 mmHg 62%
    07:00 +23°C° 0 mm 2 mps 754 mmHg 62%
    08:00 +25°C° 0 mm 2 mps 754 mmHg 57%
    09:00 +27°C° 0 mm 2 mps 753 mmHg 52%
    10:00 +29°C° 0 mm 2 mps 753 mmHg 46%
    11:00 +30°C° 0 mm 2 mps 753 mmHg 43%
    12:00 +31°C° 0 mm 2 mps 752 mmHg 41%
    13:00 +32°C° 0 mm 2 mps 752 mmHg 38%
    14:00 +32°C° 0 mm 2 mps 751 mmHg 39%
    15:00 +32°C° 0 mm 2 mps 751 mmHg 40%
    16:00 +32°C° 0 mm 2 mps 751 mmHg 42%
    17:00 +30°C° 0.1 mm 2 mps 751 mmHg 46%
    18:00 +29°C° 0.1 mm 2 mps 750 mmHg 51%
    19:00 +28°C° 0.1 mm 2 mps 750 mmHg 55%
    20:00 +27°C° 1 mm 2 mps 750 mmHg 60%
    21:00 +26°C° 1 mm 2 mps 750 mmHg 65%
    22:00 +25°C° 1 mm 2 mps 750 mmHg 70%
    23:00 +24°C° 0.2 mm 2 mps 750 mmHg 71%

    24 August, Friday

    Time Temperature Precipitation Wind Pressure Humidity
    00:00 +24°C° 0.2 mm 2 mps 749 mmHg 73%
    01:00 +23°C° 0.2 mm 2 mps 749 mmHg 74%
    02:00 +23°C° 0.2 mm 2 mps 749 mmHg 75%
    03:00 +22°C° 0.2 mm 3 mps 748 mmHg 77%
    04:00 +21°C° 0.2 mm 3 mps 748 mmHg 78%
    05:00 +22°C° 0.1 mm 3 mps 748 mmHg 76%
    06:00 +24°C° 0.1 mm 3 mps 748 mmHg 74%
    07:00 +24°C° 0.1 mm 3 mps 748 mmHg 72%
    08:00 +26°C° 0 mm 3 mps 748 mmHg 66%
    09:00 +27°C° 0 mm 3 mps 747 mmHg 61%
    10:00 +29°C° 0 mm 2 mps 747 mmHg 55%
    11:00 +30°C° 0 mm 3 mps 747 mmHg 50%
    12:00 +31°C° 0 mm 3 mps 747 mmHg 45%
    13:00 +33°C° 0 mm 4 mps 746 mmHg 40%
    14:00 +33°C° 0 mm 3 mps 746 mmHg 41%
    15:00 +33°C° 0 mm 3 mps 746 mmHg 41%
    16:00 +33°C° 0 mm 3 mps 746 mmHg 41%
    17:00 +30°C° 0 mm 3 mps 746 mmHg 46%
    18:00 +29°C° 0 mm 3 mps 746 mmHg 51%
    19:00 +27°C° 0 mm 2 mps 746 mmHg 55%
    20:00 +26°C° 1 mm 3 mps 746 mmHg 65%
    21:00 +23°C° 1 mm 4 mps 746 mmHg 74%
    22:00 +21°C° 1 mm 4 mps 746 mmHg 84%
    23:00 +21°C° 0.9 mm 4 mps 746 mmHg 86%
    Show more